Weather History for KBBD - November, 2012

Change the Weather History Date:

Friday, November 2, 2012

  Actual Average (KSJT) Record (KSJT)
Temperature  
Mean Temperature 70 °F 61 °F  
Max Temperature 84 °F 73 °F 91 °F (1945)
Min Temperature 57 °F 48 °F 22 °F (1966)
Degree Days  
Heating Degree Days 0 6  
Month to date heating degree days 12  
Since 1 July heating degree days 103  
Cooling Degree Days 6 1  
Month to date cooling degree days 3  
Year to date cooling degree days 2487  
Growing Degree Days 20 (Base 50)    
Moisture  
Dew Point 54 °F    
Average Humidity 61    
Maximum Humidity 94    
Minimum Humidity 32    
Precipitation  
Precipitation 0.00 in 0.05 in 2.16 in (1975)
Month to date precipitation 0.11  
Year to date precipitation 19.37  
Snow  
Snow 0.00 in 0.00 in 0.00 in (2002)
Month to date snowfall 0.0  
Since 1 July snowfall 0.0  
Snow Depth -    
Sea Level Pressure  
Sea Level Pressure 30.00 in    
Wind  
Wind Speed 6 mph (SSE)    
Max Wind Speed 14 mph    
Max Gust Speed -    
Visibility 10 miles    
Events      
T = Trace of Precipitation, MM = Missing Value Source: NWS Daily Summary

Daily Weather History Graph

Daily Weather History Graph

Search for Another Location

Airport or City:

Trip Planner

Search our weather history database for the weather conditions in past years. The results will help you decide how hot, cold, wet, or windy it might be!

Date:

Astronomy

Nov. 02, 2012 Rise Set
Actual Time 7:53 AM CDT 6:47 PM CDT
Civil Twilight 7:28 AM CDT 7:12 PM CDT
Nautical Twilight 7:00 AM CDT 7:41 PM CDT
Astronomical Twilight 6:31 AM CDT 8:09 PM CDT
Moon 9:43 PM CDT (11/2) 11:07 AM CDT (11/2)
Length of Visible Light 11h 43m
Length of Day
10h 53m
Waning Gibbous, 87% of the Moon is Illuminated
Nov 2
Waning Gibbous
Nov 6
Last Quarter
Nov 13
New
Nov 20
First Quarter
Nov 28
Full

Hourly Weather History & Observations

Time (CDT) Temp. Heat Index Dew Point Humidity Pressure Visibility Wind Dir Wind Speed Gust Speed Precip Events Conditions
12:15 AM 64.4 °F - 50.0 °F 59% 30.03 in 10.0 mi Calm Calm - N/A   Clear
12:35 AM 62.6 °F - 50.0 °F 63% 30.03 in 10.0 mi Calm Calm - N/A   Clear
12:55 AM 62.6 °F - 51.8 °F 68% 30.03 in 10.0 mi South 4.6 mph - N/A   Clear
1:15 AM 60.8 °F - 51.8 °F 72% 30.02 in 10.0 mi South 3.5 mph - N/A   Clear
1:35 AM 62.6 °F - 51.8 °F 68% 30.02 in 10.0 mi SSE 3.5 mph - N/A   Clear
1:55 AM 60.8 °F - 51.8 °F 72% 30.02 in 10.0 mi SSE 4.6 mph - N/A   Clear
2:15 AM 60.8 °F - 51.8 °F 72% 30.02 in 10.0 mi South 3.5 mph - N/A   Clear
2:35 AM 60.8 °F - 51.8 °F 72% 30.01 in 10.0 mi SSE 4.6 mph - N/A   Clear
2:55 AM 60.8 °F - 51.8 °F 72% 30.01 in 10.0 mi SSE 5.8 mph - N/A   Clear
3:15 AM 59.0 °F - 51.8 °F 77% 30.01 in 10.0 mi SSE 4.6 mph - N/A   Clear
3:35 AM 59.0 °F - 51.8 °F 77% 30.01 in 10.0 mi SSE 6.9 mph - N/A   Clear
3:55 AM 60.8 °F - 51.8 °F 72% 30.01 in 10.0 mi SSE 6.9 mph - N/A   Clear
4:15 AM 60.8 °F - 53.6 °F 77% 30.00 in 10.0 mi SSE 5.8 mph - N/A   Clear
4:35 AM 60.8 °F - 53.6 °F 77% 30.00 in 10.0 mi SSE 5.8 mph - N/A   Clear
4:55 AM 60.8 °F - 53.6 °F 77% 30.01 in 10.0 mi South 4.6 mph - N/A   Clear
5:15 AM 59.0 °F - 53.6 °F 82% 30.01 in 10.0 mi South 3.5 mph - N/A   Clear
5:35 AM 60.8 °F - 53.6 °F 77% 30.01 in 10.0 mi South 3.5 mph - N/A   Clear
5:55 AM 59.0 °F - 53.6 °F 82% 30.01 in 10.0 mi South 4.6 mph - N/A   Clear
6:15 AM 59.0 °F - 53.6 °F 82% 30.01 in 10.0 mi South 5.8 mph - N/A   Clear
6:35 AM 57.2 °F - 53.6 °F 88% 30.01 in 10.0 mi South 4.6 mph - N/A   Clear
6:55 AM 57.2 °F - 53.6 °F 88% 30.02 in 10.0 mi South 5.8 mph - N/A   Clear
7:15 AM 57.2 °F - 53.6 °F 88% 30.02 in 10.0 mi SSE 3.5 mph - N/A   Clear
7:35 AM 57.2 °F - 53.6 °F 88% 30.02 in 10.0 mi SSE 3.5 mph - N/A   Clear
7:55 AM 57.2 °F - 55.4 °F 94% 30.02 in 10.0 mi SSE 4.6 mph - N/A   Clear
8:35 AM 59.0 °F - 55.4 °F 88% 30.03 in 10.0 mi South 4.6 mph - N/A   Clear
8:55 AM 60.8 °F - 55.4 °F 82% 30.03 in 10.0 mi South 4.6 mph - N/A   Clear
9:15 AM 62.6 °F - 57.2 °F 82% 30.04 in 10.0 mi South 6.9 mph - N/A   Clear
9:35 AM 66.2 °F - 57.2 °F 73% 30.04 in 10.0 mi South 10.4 mph - N/A   Clear
9:55 AM 68.0 °F - 57.2 °F 68% 30.04 in 10.0 mi SSE 9.2 mph - N/A   Clear
10:15 AM 69.8 °F - 57.2 °F 64% 30.04 in 10.0 mi SSE 10.4 mph - N/A   Clear
10:35 AM 71.6 °F - 57.2 °F 60% 30.04 in 10.0 mi South 10.4 mph - N/A   Clear
10:55 AM 73.4 °F - 57.2 °F 57% 30.04 in 10.0 mi South 9.2 mph - N/A   Clear
11:15 AM 75.2 °F - 57.2 °F 53% 30.04 in 10.0 mi South 13.8 mph - N/A   Clear
11:35 AM 77.0 °F - 57.2 °F 50% 30.04 in 10.0 mi South 13.8 mph - N/A   Clear
11:55 AM 78.8 °F - 57.2 °F 47% 30.04 in 10.0 mi South 11.5 mph - N/A   Clear
12:15 PM 78.8 °F - 57.2 °F 47% 30.03 in 10.0 mi South 13.8 mph - N/A   Clear
12:35 PM 78.8 °F - 57.2 °F 47% 30.02 in 10.0 mi South 11.5 mph - N/A   Clear
12:55 PM 80.6 °F 80.8 °F 57.2 °F 45% 30.01 in 10.0 mi South 12.7 mph - N/A   Clear
1:15 PM 80.6 °F 80.8 °F 57.2 °F 45% 30.00 in 10.0 mi SSE 12.7 mph - N/A   Clear
1:35 PM 82.4 °F 81.7 °F 55.4 °F 39% 29.99 in 10.0 mi South 13.8 mph - N/A   Clear
1:55 PM 82.4 °F 81.7 °F 55.4 °F 39% 29.98 in 10.0 mi South 10.4 mph - N/A   Clear
2:15 PM 82.4 °F 81.7 °F 55.4 °F 39% 29.97 in 10.0 mi South 13.8 mph - N/A   Clear
2:55 PM 82.4 °F 81.7 °F 55.4 °F 39% 29.96 in 10.0 mi South 10.4 mph - N/A   Partly Cloudy
3:15 PM 84.2 °F 83.0 °F 55.4 °F 37% 29.95 in 10.0 mi South 12.7 mph - N/A   Partly Cloudy
3:35 PM 84.2 °F 82.8 °F 53.6 °F 35% 29.94 in 10.0 mi SSE 6.9 mph - N/A   Partly Cloudy
3:55 PM 84.2 °F - 51.8 °F 33% 29.94 in 10.0 mi South 9.2 mph - N/A   Partly Cloudy
4:15 PM 84.2 °F - 51.8 °F 33% 29.93 in 10.0 mi South 11.5 mph - N/A   Partly Cloudy
4:35 PM 84.2 °F - 51.8 °F 33% 29.93 in 10.0 mi South 10.4 mph - N/A   Clear
4:55 PM 84.2 °F - 51.8 °F 33% 29.93 in 10.0 mi South 8.1 mph - N/A   Clear
5:15 PM 82.4 °F - 50.0 °F 32% 29.93 in 10.0 mi South 10.4 mph - N/A   Clear
5:35 PM 82.4 °F - 51.8 °F 35% 29.93 in 10.0 mi SSE 6.9 mph - N/A   Clear
5:55 PM 80.6 °F 80.3 °F 53.6 °F 39% 29.93 in 10.0 mi SSE 9.2 mph - N/A   Clear
6:15 PM 80.6 °F - 51.8 °F 37% 29.93 in 10.0 mi SSE 11.5 mph - N/A   Clear
6:55 PM 75.2 °F - 53.6 °F 47% 29.94 in 10.0 mi SE 6.9 mph - N/A   Clear
7:15 PM 75.2 °F - 53.6 °F 47% 29.95 in 10.0 mi SE 6.9 mph - N/A   Clear
7:35 PM 73.4 °F - 53.6 °F 50% 29.95 in 10.0 mi SE 6.9 mph - N/A   Clear
7:55 PM 71.6 °F - 53.6 °F 53% 29.96 in 10.0 mi SE 6.9 mph - N/A   Clear
8:15 PM 71.6 °F - 53.6 °F 53% 29.96 in 10.0 mi SE 6.9 mph - N/A   Clear
8:35 PM 69.8 °F - 53.6 °F 56% 29.97 in 10.0 mi SE 6.9 mph - N/A   Clear
9:15 PM 68.0 °F - 53.6 °F 60% 29.98 in 10.0 mi SE 6.9 mph - N/A   Clear
9:35 PM 68.0 °F - 53.6 °F 60% 29.98 in 10.0 mi SSE 6.9 mph - N/A   Clear
9:55 PM 68.0 °F - 53.6 °F 60% 29.99 in 10.0 mi SSE 6.9 mph - N/A   Clear
10:55 PM 66.2 °F - 55.4 °F 68% 30.00 in 10.0 mi SSE 5.8 mph - N/A   Clear
11:15 PM 66.2 °F - 55.4 °F 68% 30.00 in 10.0 mi SSE 4.6 mph - N/A   Clear
11:35 PM 64.4 °F - 55.4 °F 73% 30.00 in 10.0 mi SE 4.6 mph - N/A   Clear
11:55 PM 64.4 °F - 55.4 °F 73% 30.00 in 10.0 mi SE 4.6 mph - N/A   Clear